Location: Newark
(45.6000°N, 12.8833°E)
Time: 07:19:22
(UTC+00:00)

Envisat - Pass Details

Date: 22 October 2019
Orbit: 764 x 766 km, 98.1° (Epoch: 22 November)

Event Time Altitude Azimuth Distance (km) Brightness Sun altitude
Rises 04:58:49 0° 27° (NNE) 3,242 6.5 -6.8°
Reaches altitude 10° 05:01:44 10° 44° (NE) 2,310 6.0 -6.3°
Maximum altitude 05:05:28 20° 91° (E) 1,706 6.2 -5.6°
Drops below altitude 10° 05:09:10 10° 138° (SE) 2,297 6.4 -5.0°
Sets 05:12:02 0° 155° (SSE) 3,217 6.8 -4.5°
